• MPC Preparation (Info)

  • MPEC 2013-S04 : 2013 RV73

    The following Minor Planet Electronic Circular may be linked-to from your own Web pages, but must not otherwise be redistributed electronically.

    A form allowing access to any MPEC is at the bottom of this page.


    Read MPEC 2013-S03 Read MPEC 2013-S05


    M.P.E.C. 2013-S04                                Issued 2013 Sept. 16, 02:03 UT
    
         The Minor Planet Electronic Circulars contain information on unusual
             minor planets and routine data on comets.  They are published
       on behalf of Commission 20 of the International Astronomical Union by the
              Minor Planet Center, Smithsonian Astrophysical Observatory,
                              Cambridge, MA 02138, U.S.A.
    
                 Prepared using the Tamkin Foundation Computer Network
    
                                  MPC@CFA.HARVARD.EDU
                URL https://www.minorplanetcenter.net/    ISSN 1523-6714
    
                                       2013 RV73
    
    Observations:
         K13R73V* C2013 09 14.24091 23 43 12.51 -07 27 41.3          18.1 VqES004G96
         K13R73V  C2013 09 14.24815 23 43 04.11 -07 26 21.3          18.1 VqES004G96
         K13R73V  C2013 09 14.25544 23 42 55.67 -07 25 00.8          18.2 VqES004G96
         K13R73V  C2013 09 14.26268 23 42 47.30 -07 23 41.2          18.1 VqES004G96
         K13R73V KC2013 09 14.30061723 41 58.78 -07 17 06.8          19.1 VuES004H21
         K13R73V  C2013 09 14.30155 23 42 02.69 -07 16 36.3          18.2 VqES004G96
         K13R73V  C2013 09 14.30190 23 42 02.30 -07 16 32.4          18.2 VqES004G96
         K13R73V  C2013 09 14.30263 23 42 01.47 -07 16 24.6          18.8 VqES004G96
         K13R73V KC2013 09 14.30390423 41 55.07 -07 16 31.0          19.1 VuES004H21
         K13R73V KC2013 09 14.30704323 41 51.55 -07 15 56.8          19.2 VuES004H21
         K13R73V KC2013 09 14.31007723 41 48.14 -07 15 23.6          19.1 VuES004H21
         K13R73V KC2013 09 14.31302323 41 44.84 -07 14 51.6          19.1 VuES004H21
         K13R73V KC2013 09 14.31552223 41 42.04 -07 14 24.4          19.2 VuES004H21
         K13R73V KC2013 09 14.31775523 41 39.55 -07 14 00.0          19.1 VuES004H21
         K13R73V KC2013 09 14.90533 23 32 46.11 -05 40 09.8                qES004J95
         K13R73V KC2013 09 14.90960 23 32 42.47 -05 39 33.8                qES004J95
         K13R73V KC2013 09 14.91402 23 32 38.66 -05 38 56.6          18.7 RqES004J95
         K13R73V KC2013 09 15.16282623 29 25.42 -05 04 37.5          19.3 VuES004H21
         K13R73V KC2013 09 15.16523523 29 23.48 -05 04 18.5          19.1 VuES004H21
         K13R73V KC2013 09 15.16970023 29 19.90 -05 03 44.1          19.2 VuES004H21
         K13R73V KC2013 09 15.17272723 29 17.47 -05 03 20.7          19.2 VuES004H21
         K13R73V KC2013 09 15.93164523 21 06.38 -03 37 15.7          19.2 VuES004I93
         K13R73V KC2013 09 15.93886323 21 01.97 -03 36 32.7          19.5 VuES004I93
         K13R73V KC2013 09 15.94644123 20 57.30 -03 35 47.6          19.2 VuES004I93
    
    Observer details:
    G96 Mt. Lemmon Survey.  Observer R. A. Kowalski.  Measurers A. Boattini,
        E. J. Christensen, A. R. Gibbs, A. D. Grauer, R. E. Hill, J. A. Johnson,
        R. A. Kowalski, S. M. Larson, F. C. Shelly.  1.5-m reflector + CCD.
    H21 Astronomical Research Observatory, Westfield.  Observer R. Holmes.
        Measurers T. Vorobjov, L. Buzzi, S. Foglia, T. Linder.  0.61-m f/4.5
        astrograph + CCD.
    I93 St Pardon de Conques.  Observer F. Losse.  0.40-m f/3.7 reflector + CCD.
    J95 Great Shefford.  Observer P. Birtwhistle.  0.40-m f/6.0 Schmidt-Cassegrain
        + CCD.
    
    Orbital elements:
    2013 RV73                                                Earth MOID = 0.0124 AU
    Epoch 2013 Nov. 4.0 TT = JDT 2456600.5                  MPC
    M  95.34966              (2000.0)            P               Q
    n   0.81455160     Peri.  251.56154     -0.43308516     +0.90117204
    a   1.1355083      Node   352.69715     -0.76405807     -0.37767385
    e   0.4529573      Incl.    8.16866     -0.47817623     -0.21272383
    P   1.21           H   25.4           G   0.15           U   8
    Residuals in seconds of arc
    130914 G96  0.0   0.1+    130914 H21  0.0   0.0     130914 J95  0.3+  0.7-
    130914 G96  0.0   0.0     130914 H21  0.2+  0.0     130915 H21  0.2+  0.4+
    130914 G96  0.0   0.1+    130914 H21  0.1+  0.1+    130915 H21  0.0   0.7+
    130914 G96  0.0   0.0     130914 H21  0.1+  0.0     130915 H21  0.1-  0.6+
    130914 H21  0.1+  0.1+    130914 H21  0.0   0.1+    130915 H21  0.2-  0.6+
    130914 G96  0.1-  0.2+    130914 H21  0.1+  0.2+    130915 I93  0.1+  0.1+
    130914 G96  0.0   0.3+    130914 J95  0.7-  0.1+    130915 I93  0.4+  0.1+
    130914 G96  0.0   0.1+    130914 J95  0.1+  0.2-    130915 I93  0.1+  0.1+
    
    Ephemeris:
    2013 RV73                a,e,i = 1.14, 0.45, 8                   q = 0.6212
    Date    TT    R. A. (2000) Decl.     Delta      r     Elong.  Phase     V
    2013 08 17    10 14 16.1 -06 42 45   0.2181  0.8133    21.4   153.0    30.7
    ...
    2013 09 01    09 51 23.3 -11 47 03   0.08108 0.9355    23.6   154.4    29.2
    ...
    2013 09 09    07 09 49.6 -30 51 52   0.01853 1.0004    67.7   111.3    21.0
    ...
    2013 09 15    23 31 25.6 -05 24 08   0.04226 1.0479   177.7     2.2    18.9
    2013 09 16    23 20 25.8 -03 28 27   0.05039 1.0557   176.4     3.5    19.4
    2013 09 17    23 12 33.2 -02 04 47   0.05867 1.0634   173.6     6.1    19.9
    ...
    2013 09 23    22 51 17.6 +01 45 52   0.1101  1.1091   162.8    15.5    21.7
    ...
    2013 10 01    22 43 48.9 +03 22 24   0.1820  1.1674   153.8    22.2    23.1
    ...
    2013 10 16    22 45 50.8 +04 27 18   0.3287  1.2682   140.6    29.9    24.8
    
    A. U. Tomatic                (C) Copyright 2013 MPC           M.P.E.C. 2013-S04
    

    Read MPEC 2013-S03 Read MPEC 2013-S05


    MPEC number:

    Enter an MPEC number in one of the following forms:

    • 1997-B01 (the full form)
    • J97B01 (the packed version of the full form)
    • B01 (the abbreviated form)